Regional Weather Roundup
Issued by NWS

Home | Current Version | Previous Version | Text Only | Print | Product List | Glossary Off
Versions: 1 2 3 4 5 6 7 8 9 10 11 12 13 14 15 16 17 18 19 20 21 22 23 24 25 26 27 28 29 30 31 32 33 34 35 36 37 38 39 40 41 42 43 44 45 46 47 48 49 50

000
ASUS43 KIND 302359
RWRIN

WEATHER ROUNDUP FOR INDIANA
NATIONAL WEATHER SERVICE INDIANAPOLIS IN
800 PM EDT MON MAY 30 2016

NOTE: "FAIR" INDICATES FEW OR NO CLOUDS BELOW 12,000 FEET WITH NO
SIGNIFICANT WEATHER AND/OR OBSTRUCTIONS TO VISIBILITY.

* - STATION DOES NOT REPORT WEATHER SUCH AS PRECIPITATION OR FOG.

+ - STATION NOT QUALITY CONTROLLED BY THE NATIONAL WEATHER SERVICE.
    USE DATA WITH CAUTION...ESPECIALLY DEWPOINT AND RELATIVE
    HUMIDITY OBSERVATIONS.

INZ001>003-010>013-019-020-310100-
NORTHWEST INDIANA

CITY           SKY/WX    TMP DP  RH WIND       PRES   REMARKS
GARY /AIRPORT/ MOSUNNY   79  64  61 E7        29.96S
RENSSELAER +   CLOUDY    82  52  34 W9        29.96S

$$

LMZ046-743>745-310100-
SOUTHERN LAKE MICHIGAN

STATION/POSITION TIME  TEMP    WIND        PRES    WAVE
                       AIR SEA DIR/SP/G            HT
                 (UTC) (F)     (DEG/KT/KT) (MB)    (FT)
BURNS HARBOR     2300   70      80/ 10/ 11 1014.9F
MICHIGAN CITY    2300   69      30/ 11/ 11   N/A
5NW MICH CITY    2300   67 63   70/  6/  6   N/A     0

$$

INZ004-005-014>016-021>024-310100-
NORTH CENTRAL INDIANA

CITY           SKY/WX    TMP DP  RH WIND       PRES   REMARKS
GOSHEN         SUNNY     78  53  41 N10       29.97S
6HR MIN TEMP:  78; 6HR MAX TEMP:  84;

SOUTH BEND     SUNNY     81  55  40 N5        29.97F
6HR MIN TEMP:  81; 6HR MAX TEMP:  84;


$$

INZ006>009-017-018-025>027-310100-
NORTHEAST INDIANA

CITY           SKY/WX    TMP DP  RH WIND       PRES   REMARKS
ANGOLA *+        N/A     84  79  84 N9        29.98S HX  96
FORT WAYNE     PTSUNNY   82  54  37 N6        29.96F
6HR MIN TEMP:  82; 6HR MAX TEMP:  88;


$$

INZ028-029-035-036-043>045-051>053-310100-
WEST CENTRAL INDIANA

CITY           SKY/WX    TMP DP  RH WIND       PRES   REMARKS
CRAWFORDSVL +  MOSUNNY   82  55  38 SW5       29.98S
6HR MIN TEMP:  82; 6HR MAX TEMP:  85;

GREENCASTLE +  CLOUDY    79  63  57 CALM      30.00S
LAFAYETTE      CLOUDY    81  55  40 W5        29.95S
6HR MIN TEMP:  81; 6HR MAX TEMP:  87;

TERRE HAUTE    MOSUNNY   82  56  40 S3        29.98S
6HR MIN TEMP:  82; 6HR MAX TEMP:  87;


$$

INZ030>032-037>040-046>048-054>057-064-065-310100-
CENTRAL INDIANA

CITY           SKY/WX    TMP DP  RH WIND       PRES   REMARKS
COLUMBUS       SUNNY     82  55  39 W6        29.98S
INDIANAPOLIS   PTSUNNY   79  59  50 SW9       29.97S
6HR MIN TEMP:  79; 6HR MAX TEMP:  86;

-EAGLE CREEK   MOSUNNY   82  55  39 SW5       29.97S
6HR MIN TEMP:  82; 6HR MAX TEMP:  87;

KOKOMO *+      PTSUNNY   82  55  39 SW8       29.96S
6HR MIN TEMP:  82; 6HR MAX TEMP:  88;

SHELBYVILLE    SUNNY     84  54  35 W5        29.97S
6HR MIN TEMP:  84; 6HR MAX TEMP:  89;


$$

INZ033-034-041-042-049-050-058-059-310100-
EAST CENTRAL INDIANA

CITY           SKY/WX    TMP DP  RH WIND       PRES   REMARKS
MUNCIE         MOSUNNY   84  51  31 W3        29.97S
6HR MIN TEMP:  84; 6HR MAX TEMP:  90;


$$

INZ060-061-067>069-081>083-085>088-310100-
SOUTHWEST INDIANA

CITY           SKY/WX    TMP DP  RH WIND       PRES   REMARKS
EVANSVILLE     MOSUNNY   83  58  42 E5        29.98S
6HR MIN TEMP:  83; 6HR MAX TEMP:  88;

HUNTINGBURG *+ SUNNY     82  57  42 N3        29.98S
6HR MIN TEMP:  82; 6HR MAX TEMP:  86;


$$

INZ062-063-066-070>080-084-089>092-310100-
SOUTH CENTRAL AND SOUTHEAST INDIANA

CITY           SKY/WX    TMP DP  RH WIND       PRES   REMARKS
BLOOMINGTON    SUNNY     81  59  47 CALM      29.99S
6HR MIN TEMP:  81; 6HR MAX TEMP:  86;

MADISON *+     CLEAR     82  46  28 CALM      30.00S
SEYMOUR +      SUNNY     84  57  39 NW6       29.97S

$$





USA.gov is the U.S. government's official web portal to all federal, state and local government web resources and services.